User: anonymous   Login
Location: Unspecified
(0.0000°N, 0.0000°E)
Time: 05:29:38
(UTC+00:00)
Language:

Diademe D-1C - Orbit

View from above orbital plane
View from above orbital plane
View from above satellite
View from above satellite

Ground track
Ground track

The orbit data is extracted from the following two-line orbital elements,

1  2674U 67011A   18343.90429951 +.00000206 +00000-0 +50802-4 0  9999
2  2674 039.9223 207.5250 0264404 085.1349 277.9559 14.54701870688632
Epoch (UTC): 09 December 2018 21:42:11
Eccentricity: 0.0264404
inclination: 39.9223°
perigee height: 523 km
apogee height: 898 km
right ascension of ascending node: 207.5250°
argument of perigee: 85.1349°
revolutions per day: 14.54701870
mean anomaly at epoch: 277.9559°
orbit number at epoch: 68863

The dashed part of the orbit path shows where the satellite is in the earth's shadow,  

DLR